This is the latest recevied weather packets stored in our database for station/object EB5AGF-13. If no packets are shown the sender has not sent any weather packets the latest 10 day(s).
| Time | Temp. | Humidity | Pressure | Rain* | Wind** | Luminosity | Snow |
|---|---|---|---|---|---|---|---|
| 1777496910 | 17.22° C | 88% | 1010.5 hPa | 0 mm | 0.45 m/s, 37° | 0 W/m² | - |
| 1777496606 | 17.22° C | 87% | 1010.4 hPa | 0 mm | 0.45 m/s, 39° | 0 W/m² | - |
| 1777496303 | 17.78° C | 87% | 1010.4 hPa | 0 mm | 0 m/s | 0 W/m² | - |
| 1777495998 | 17.78° C | 86% | 1010.4 hPa | 0 mm | 0 m/s | 0 W/m² | - |
| 1777495694 | 17.78° C | 86% | 1010.4 hPa | 0 mm | 0 m/s | 0 W/m² | - |
| 1777495390 | 17.78° C | 84% | 1010.4 hPa | 0 mm | 0 m/s | 0 W/m² | - |
| 1777495087 | 18.33° C | 84% | 1010.1 hPa | 0 mm | 0 m/s | 0 W/m² | - |
| 1777494782 | 18.33° C | 83% | 1010.4 hPa | 0 mm | 0 m/s | 0 W/m² | - |
| 1777494478 | 18.33° C | 83% | 1010.2 hPa | 0 mm | 0.45 m/s, 166° | 0 W/m² | - |
| 1777494174 | 18.33° C | 83% | 1009.9 hPa | 0 mm | 0.45 m/s, 165° | 0 W/m² | - |
| 1777493871 | 18.33° C | 83% | 1010.1 hPa | 0 mm | 0 m/s | 0 W/m² | - |
| 1777493566 | 18.33° C | 83% | 1009.9 hPa | 0 mm | 0 m/s | 0 W/m² | - |
| 1777493262 | 18.33° C | 83% | 1010 hPa | 0 mm | 0.45 m/s, 278° | 0 W/m² | - |
| 1777492959 | 18.33° C | 83% | 1009.8 hPa | 0 mm | 0.45 m/s, 280° | 0 W/m² | - |
| 1777492653 | 18.33° C | 83% | 1009.7 hPa | 0 mm | 0.45 m/s, 294° | 0 W/m² | - |
| 1777492350 | 18.33° C | 83% | 1009.6 hPa | 0 mm | 0.89 m/s, 219° | 0 W/m² | - |
| 1777492046 | 18.33° C | 83% | 1009.5 hPa | 0 mm | 0.45 m/s, 191° | 0 W/m² | - |
| 1777491743 | 18.89° C | 83% | 1009.5 hPa | 0 mm | 0 m/s | 0 W/m² | - |
| 1777491438 | 18.89° C | 82% | 1009.6 hPa | 0 mm | 1.79 m/s, 216° | 0 W/m² | - |
| 1777491134 | 18.89° C | 83% | 1009.3 hPa | 0 mm | 1.34 m/s, 179° | 0 W/m² | - |
| 1777490830 | 18.89° C | 82% | 1009.2 hPa | 0 mm | 1.34 m/s, 183° | 0 W/m² | - |
| 1777490527 | 18.89° C | 82% | 1009.2 hPa | 0 mm | 0.89 m/s, 153° | 0 W/m² | - |
| 1777490222 | 18.89° C | 82% | 1009.1 hPa | 0 mm | 0.45 m/s, 170° | 0 W/m² | - |
| 1777489918 | 18.89° C | 81% | 1008.9 hPa | 0 mm | 0.89 m/s, 175° | 0 W/m² | - |
| 1777489614 | 18.89° C | 81% | 1008.9 hPa | 0 mm | 0.45 m/s, 222° | 0 W/m² | - |
* Rain latest hour (hover to see other rain measurements)
** Current wind speed in m/s (hover to see current wind gust speed)